Regional Weather Roundup
Issued by NWS Cleveland, OH

Home | Current Version | Previous Version | Text Only | Print | Product List | Glossary Off
Versions: 1 2 3 4 5 6 7 8 9 10 11 12 13 14 15 16 17 18 19 20 21 22 23 24 25 26 27 28 29 30 31 32 33 34 35 36 37 38 39 40 41 42 43 44 45 46 47 48 49 50

000
ASUS41 KCLE 200410
RWRCLE
OHIO REGIONAL WEATHER ROUNDUP
NATIONAL WEATHER SERVICE CLEVELAND, OH
1100 PM EST MON FEB 19 2018

NOTE: "FAIR" INDICATES FEW OR NO CLOUDS BELOW 12,000 FEET WITH NO
SIGNIFICANT WEATHER AND/OR OBSTRUCTIONS TO VISIBILITY.

OHZ001>008-015>018-024>027-034-035-043-044-200500-
   NORTHWEST OHIO

CITY           SKY/WX    TMP DP  RH WIND       PRES   REMARKS
DEFIANCE       CLOUDY    57  55  93 S8        29.96F
FINDLAY        CLOUDY    59  54  83 CALM      30.00F
TOLEDO EXPRESS FAIR      57  57 100 S7        29.96F
TOLEDO EXEC    FAIR      55  54  96 S9        29.98F FOG
LIMA           MOCLDY    63  55  75 S14       30.01S
$$

OHZ009>014-019>023-028>033-038-089-200500-
   NORTHEAST OHIO

CITY           SKY/WX    TMP DP  RH WIND       PRES   REMARKS
CLE-HOPKINS    CLOUDY    65  56  72 S18       30.05R
CLE-LAKEFRONT  MOCLDY    66  55  67 S22G31    30.01R
CUY CO. ARPT   CLOUDY    68  57  68 SW15G25   30.04R
LORAIN-ELYRIA  CLOUDY    62  52  69 SW9G16    30.03R
ASHTABULA      CLOUDY    60  56  86 S13       30.06R
AKRON-CANTON   CLOUDY    62  53  72 SW15      30.09R
WOOSTER        FAIR      60  54  80 S14       30.08S
MANSFIELD      FAIR      62  55  77 S18G29    30.06S
YOUNGSTOWN     CLOUDY    63  55  75 SW10      30.08R
$$

OHZ042-051>053-060>062-070>072-077>081-200500-
  SOUTHWEST OHIO

CITY           SKY/WX    TMP DP  RH WIND       PRES   REMARKS
CINC-COVINGTON FAIR      62  56  80 S13       30.08S
CINC-LUNKEN    FAIR      64  55  72 S13       30.10R
HAMILTON       FAIR      66  56  70 VRB7      30.08S
DAYTON         MOCLDY    64  56  75 S17G26    30.06S
WRIGHT-PAT AFB FAIR      65  54  68 S16       30.06S
DAYTON GENERAL FAIR      64  54  69 S15       30.07S
WILMINGTON     FAIR      61  55  81 S13       30.10R
$$

OHZ036-037-039>041-045>050-054>059-063>069-073>076-082>088-200500-
  CENTRAL AND SOUTHEAST OHIO

CITY           SKY/WX    TMP DP  RH WIND       PRES   REMARKS
COLUMBUS       FAIR      62  55  77 S5        30.09S
OSU AIRPORT    FAIR      63  56  78 S13G24    30.08S
BOLTON FIELD   FAIR      62  55  76 S12       30.10R
RICKENBACK AFB FAIR      61  55  81 S12       30.09S
NEWARK         FAIR      61  53  75 S6        30.10R
MARION         FAIR      62  54  74 SW20G26   30.05F
LANCASTER      FAIR      64  54  69 S12       30.11S
ZANESVILLE     FAIR      65  53  65 S13       30.13R
NEW PHILLY     NOT AVBL
$$




USA.gov is the U.S. government's official web portal to all federal, state and local government web resources and services.